Wind_Speed
19 19 19 19 20 21 21 21 21 20 21 21 22 22 22 23 23 23 24 25 26 26 26 27 27 28 29 30 31 32 32 33 34 34 34 34 35 36 37 38 38 38 38 37
21 22 22 22 22 23 23 23 23 22 22 23 24 24 23 24 25 25 26 27 27 27 28 28 29 29 30 31 32 32 33 33 34 34 35 35 35 36 37 37 37 37 37 36
24 25 25 23 23 24 25 25 25 25 25 26 26 26 26 26 27 28 28 29 29 30 30 31 31 32 32 32 32 33 33 34 35 35 36 36 36 36 36 36 36 35 35 36
28 28 28 27 26 27 27 27 27 28 28 28 29 29 29 29 30 29 30 30 31 31 32 33 33 33 33 33 33 34 34 35 36 35 35 35 35 35 36 35 35 35 35 34
32 32 31 30 29 31 31 30 31 31 30 31 31 31 32 32 32 32 32 33 33 33 34 35 35 35 34 34 35 35 34 34 34 34 34 35 35 35 35 35 35 35 34 34
36 36 36 33 33 33 34 34 33 33 33 33 33 33 33 34 34 35 35 35 35 35 35 36 36 36 36 36 35 35 35 35 35 35 35 35 35 35 35 35 34 34 34 34
38 39 38 37 37 37 37 37 36 35 35 35 36 36 36 36 36 36 37 37 36 36 36 36 36 36 36 37 37 37 36 36 36 36 36 36 36 36 35 35 35 35 35 34
39 39 39 39 39 39 39 39 39 39 38 39 38 38 38 38 38 38 38 39 38 38 38 38 38 38 38 38 38 38 38 37 37 37 37 37 37 36 36 35 35 35 35 35
41 40 40 41 42 42 42 42 41 41 41 41 41 40 40 40 39 40 40 41 41 41 40 40 40 39 39 39 39 38 38 38 38 38 38 38 38 37 36 35 34 35 35 35
44 42 42 43 44 43 43 43 43 43 43 43 43 42 42 41 41 41 41 42 42 42 42 42 41 41 41 40 40 40 39 39 38 38 38 38 37 37 36 36 36 35 35 35
46 45 46 46 45 45 46 46 46 45 45 45 44 44 43 43 42 42 42 43 43 43 43 43 43 42 41 41 41 40 39 39 39 38 38 37 37 37 37 37 37 36 36 36
48 47 48 47 46 47 47 47 47 47 46 46 46 46 45 44 44 44 44 44 43 43 43 43 43 43 42 42 41 40 39 39 39 39 39 38 38 37 37 37 37 37 37 37
50 50 50 49 49 49 48 48 48 48 48 47 47 47 47 46 45 45 45 45 44 44 43 43 43 43 43 43 43 42 41 40 40 40 40 39 39 38 38 37 37 37 37 37
51 52 51 50 50 49 50 49 49 49 48 48 48 48 48 47 46 46 45 45 45 44 43 43 42 42 42 42 42 42 42 42 41 40 40 39 39 39 38 37 36 36 36 36
51 52 52 51 51 50 50 50 50 49 49 48 48 47 47 47 46 45 45 45 45 44 43 43 42 42 42 42 42 42 41 41 40 40 39 39 39 38 37 36 35 36 36 36
50 51 51 51 50 50 50 50 50 49 48 47 47 47 46 46 45 45 45 45 44 43 43 43 42 42 42 42 42 42 41 40 40 39 39 38 38 37 36 36 35 35 35 35
50 49 49 49 49 49 49 49 48 47 47 46 45 45 45 44 44 44 43 43 42 42 42 42 41 41 41 40 40 41 40 39 39 39 38 38 38 37 37 36 36 35 35 35
49 49 48 48 48 47 47 47 47 46 45 44 44 44 43 43 42 42 42 42 41 41 41 41 40 40 40 40 40 39 39 39 39 38 38 38 37 37 37 36 36 35 34 34
48 48 47 47 47 47 46 46 46 45 44 44 43 43 43 42 42 41 42 41 41 41 41 40 40 40 40 39 39 39 38 38 38 38 38 38 37 37 37 36 36 35 35 34
47 46 47 47 46 46 46 46 45 45 45 45 44 43 43 43 42 42 42 41 40 40 40 40 40 40 39 39 39 38 38 38 38 37 37 37 37 37 36 36 36 35 35 34
44 45 45 45 45 45 45 45 45 45 45 45 44 44 43 43 43 42 42 41 40 41 41 41 40 40 40 39 38 37 37 37 37 37 37 37 36 36 35 35 35 35 34 33
45 45 45 45 45 44 44 45 46 46 45 45 45 44 44 43 42 42 42 42 42 42 41 41 40 40 39 39 38 37 37 37 37 37 37 36 35 34 34 33 33 33 32 32
46 46 46 46 47 46 45 45 46 46 46 45 45 45 44 44 43 43 42 42 42 41 40 40 39 39 38 38 38 37 37 37 37 36 35 35 34 33 33 32 31 31 31 31
47 48 48 48 48 48 48 47 47 47 46 46 45 44 44 43 43 42 42 41 40 39 39 39 38 37 37 37 37 36 36 36 36 35 34 33 33 32 31 31 30 30 29 29
48 48 49 49 49 48 48 48 48 47 47 46 45 43 43 42 41 40 40 39 38 38 38 37 36 36 35 35 35 34 34 33 33 33 33 32 31 30 30 29 29 28 27 27
47 47 47 47 48 48 49 49 49 47 47 46 45 43 42 40 39 38 38 37 36 36 36 36 35 34 33 32 32 32 32 31 31 31 30 30 30 29 28 27 27 26 25 25
47 47 47 46 46 46 46 46 46 45 44 44 42 41 40 39 38 37 36 36 35 35 34 34 32 31 30 30 30 30 30 29 28 28 27 27 27 27 26 26 25 24 24 24
Wind_Direction
294 293 290 288 287 286 287 288 288 288 287 286 285 286 286 285 284 282 281 279 278 277 276 276 277 277 277 277 278 278 280 280 281 282 283 284 284 284 284 284 284 284 283 282
294 292 290 289 287 285 285 286 286 286 286 284 285 285 286 285 284 283 281 279 278 278 277 277 278 279 280 281 281 281 281 282 282 283 284 285 285 285 285 285 284 283 282 282
293 291 291 291 289 286 285 284 285 284 283 281 282 283 284 284 284 282 281 280 279 279 279 280 281 281 281 282 283 283 283 282 283 284 285 286 286 287 286 285 284 283 283 282
293 291 290 290 288 287 285 285 285 283 282 282 282 282 283 283 283 283 282 280 280 280 281 281 282 282 282 282 283 283 283 283 284 285 286 287 288 288 287 286 284 284 283 283
292 291 290 289 288 286 285 284 284 283 284 283 282 282 282 282 282 282 282 281 282 282 282 282 281 281 282 283 284 284 284 285 284 285 287 288 289 288 286 285 284 283 282 283
291 290 290 290 287 286 285 285 284 283 284 284 283 282 282 282 281 282 282 282 282 282 283 282 281 281 282 283 283 284 285 285 286 285 286 288 289 288 287 285 283 283 282 282
289 289 289 290 288 287 287 287 286 284 284 283 283 283 281 280 280 280 282 282 282 282 282 282 282 282 283 283 283 283 284 285 285 286 287 288 288 288 287 285 283 282 281 281
287 288 289 288 288 288 287 287 286 285 284 283 283 283 282 280 279 279 280 281 281 280 281 281 281 281 282 283 283 283 284 285 285 285 286 287 287 287 286 285 283 281 280 280
285 287 287 286 286 286 287 287 287 286 286 284 283 283 282 281 280 280 280 280 280 280 279 280 280 281 282 283 283 284 284 284 284 284 284 285 285 284 284 284 284 282 280 280
284 285 284 284 285 286 286 286 286 286 286 286 285 284 283 283 282 281 280 281 280 280 279 279 279 280 281 282 283 284 284 284 284 284 284 284 283 283 283 282 282 282 281 281
282 283 282 282 284 284 285 285 286 286 286 287 286 285 285 284 283 282 281 281 281 280 279 279 279 280 280 281 282 282 282 283 283 283 283 283 282 282 282 282 281 280 280 280
282 282 282 283 284 284 285 285 285 286 286 286 286 286 285 284 284 282 282 282 281 281 281 280 279 279 280 280 281 282 282 282 281 281 282 281 281 281 281 281 281 280 279 279
281 281 282 284 284 284 284 285 286 286 286 286 285 285 285 284 283 282 282 282 281 281 281 280 279 278 278 278 279 280 280 280 279 279 279 279 279 280 281 280 280 280 280 280
280 281 282 282 283 283 284 284 285 286 286 285 285 284 284 284 283 281 281 280 280 280 280 280 280 278 277 277 278 278 278 278 278 278 278 278 279 280 280 279 279 280 280 279
280 280 281 281 282 282 283 283 285 285 285 284 284 284 283 283 283 281 280 279 279 279 280 280 280 278 276 275 276 277 277 277 277 276 276 276 278 278 278 278 278 278 279 278
279 280 281 281 281 282 282 283 283 283 283 283 283 283 283 283 282 282 281 280 279 279 280 280 279 277 276 276 275 275 275 276 275 275 275 276 276 277 277 277 278 278 277 277
280 280 279 280 280 281 282 282 282 282 283 282 282 283 283 283 283 282 281 280 280 279 279 279 277 276 276 276 275 274 274 274 274 274 275 275 275 276 277 277 278 277 277 276
279 280 280 280 281 281 281 281 282 282 282 282 282 283 283 283 282 282 281 280 280 279 278 277 276 276 276 275 274 274 274 274 274 274 275 275 275 275 276 276 277 277 276 276
278 279 279 280 279 279 280 280 281 281 282 282 282 282 282 282 282 281 280 279 279 278 277 276 275 275 275 275 274 274 273 274 274 274 274 274 275 275 276 276 276 275 274 275
278 279 278 279 279 279 279 279 280 280 280 281 281 282 281 281 281 280 279 278 278 277 276 275 275 275 274 274 273 273 272 272 273 274 274 275 275 275 275 275 274 274 274 274
278 278 278 278 278 278 279 279 280 280 280 280 281 281 281 280 280 279 278 277 277 277 277 276 275 274 274 273 273 272 272 273 274 274 274 275 276 275 275 275 274 273 273 274
278 278 278 277 277 277 278 278 279 280 280 280 281 282 281 280 279 278 278 278 277 276 276 275 274 274 273 272 272 272 272 273 274 274 274 274 274 273 274 274 274 273 272 273
278 278 278 278 277 277 278 278 278 279 279 280 280 280 280 280 279 278 277 277 277 276 276 275 273 273 273 273 272 272 272 273 273 274 273 272 272 271 272 273 273 272 272 273
279 279 278 278 278 278 277 277 278 279 279 279 279 280 279 279 278 278 278 278 276 275 275 274 273 273 273 273 273 273 273 273 273 272 272 272 271 271 271 272 272 272 272 273
278 278 277 277 277 278 278 277 277 278 279 279 279 279 278 278 278 277 277 277 276 275 275 274 273 272 272 272 272 272 272 273 273 271 270 269 269 269 269 270 271 271 272 272
278 278 278 277 277 278 278 278 277 277 277 277 277 277 276 277 277 277 276 276 276 275 275 274 273 272 271 270 270 270 271 272 271 270 268 267 266 267 267 268 268 269 271 273
280 280 279 278 278 279 279 278 277 276 276 276 275 275 275 275 276 277 277 276 275 274 273 271 270 270 269 268 268 269 270 271 270 268 267 266 265 265 265 265 266 268 271 273
Height
5698 5697 5696 5695 5695 5694 5692 5691 5691 5691 5689 5688 5686 5685 5684 5683 5682 5681 5679 5678 5677 5676 5675 5674 5673 5672 5671 5670 5669 5667 5666 5665 5663 5662 5660 5658 5656 5654 5652 5650 5648 5646 5645 5643
5694 5692 5690 5690 5689 5688 5687 5686 5685 5684 5684 5682 5680 5679 5678 5677 5675 5674 5672 5671 5670 5668 5667 5666 5665 5664 5663 5662 5660 5659 5657 5656 5654 5652 5651 5649 5647 5644 5642 5640 5638 5636 5634 5633
5688 5687 5685 5685 5684 5682 5681 5679 5678 5677 5678 5675 5674 5672 5671 5670 5668 5666 5665 5663 5662 5660 5659 5658 5657 5655 5654 5653 5651 5650 5648 5647 5645 5643 5641 5639 5637 5635 5633 5630 5628 5626 5625 5623
5681 5680 5679 5681 5677 5675 5674 5673 5671 5670 5669 5668 5666 5665 5663 5661 5659 5658 5656 5655 5653 5652 5650 5649 5647 5646 5645 5643 5642 5640 5639 5637 5635 5634 5632 5630 5627 5625 5623 5621 5619 5617 5615 5613
5673 5671 5670 5671 5669 5667 5665 5664 5663 5661 5660 5659 5657 5656 5655 5653 5651 5649 5647 5646 5644 5643 5641 5639 5638 5636 5635 5634 5632 5630 5629 5627 5625 5624 5622 5620 5617 5615 5613 5611 5609 5607 5606 5604
5664 5661 5661 5663 5660 5657 5656 5655 5654 5652 5651 5650 5648 5647 5647 5643 5641 5639 5638 5636 5634 5633 5631 5629 5627 5626 5625 5623 5622 5620 5618 5617 5615 5613 5612 5610 5607 5605 5603 5601 5599 5598 5596 5594
5654 5651 5651 5652 5649 5647 5647 5646 5643 5642 5640 5639 5638 5637 5635 5633 5631 5629 5627 5626 5624 5622 5620 5618 5617 5615 5614 5613 5611 5609 5608 5606 5605 5603 5601 5599 5597 5595 5593 5591 5589 5588 5586 5585
5645 5643 5644 5640 5638 5637 5636 5633 5632 5630 5629 5628 5627 5625 5623 5622 5620 5618 5616 5614 5613 5611 5609 5608 5606 5605 5603 5602 5600 5599 5597 5596 5594 5592 5590 5588 5587 5585 5582 5581 5579 5577 5576 5575
5635 5636 5632 5629 5626 5625 5624 5622 5620 5619 5617 5615 5614 5613 5611 5610 5608 5607 5605 5603 5601 5599 5598 5596 5595 5593 5592 5590 5588 5587 5586 5584 5583 5581 5579 5577 5576 5574 5572 5570 5568 5567 5565 5564
5622 5623 5620 5617 5615 5614 5612 5610 5608 5606 5605 5603 5601 5600 5598 5597 5595 5594 5592 5590 5588 5587 5586 5584 5583 5581 5580 5578 5576 5575 5574 5572 5571 5569 5568 5566 5564 5562 5561 5559 5558 5556 5555 5553
5609 5609 5607 5606 5603 5601 5599 5597 5595 5594 5592 5590 5588 5587 5585 5583 5582 5580 5579 5577 5575 5574 5573 5572 5570 5569 5567 5566 5564 5563 5562 5560 5559 5557 5556 5554 5553 5551 5550 5548 5546 5545 5544 5543
5597 5596 5593 5592 5591 5589 5586 5585 5583 5581 5579 5577 5575 5573 5571 5570 5568 5567 5565 5563 5562 5560 5559 5558 5557 5556 5554 5553 5552 5550 5549 5548 5547 5545 5544 5543 5541 5540 5538 5537 5535 5534 5533 5532
5582 5580 5579 5578 5577 5574 5572 5571 5569 5567 5565 5563 5561 5559 5557 5556 5554 5553 5551 5549 5548 5547 5545 5544 5543 5542 5541 5540 5538 5537 5536 5535 5534 5533 5532 5531 5529 5528 5527 5526 5524 5523 5521 5520
5567 5566 5565 5564 5562 5560 5558 5556 5555 5553 5551 5549 5547 5545 5543 5541 5540 5538 5537 5535 5534 5532 5531 5530 5529 5528 5527 5525 5525 5524 5523 5522 5521 5520 5519 5518 5517 5516 5515 5514 5513 5511 5510 5509
5553 5551 5550 5549 5547 5545 5543 5542 5540 5539 5537 5535 5532 5530 5528 5527 5525 5524 5522 5521 5519 5518 5517 5516 5515 5514 5512 5512 5511 5510 5509 5509 5508 5507 5506 5506 5505 5504 5503 5502 5501 5500 5499 5498
5538 5536 5534 5533 5532 5530 5529 5527 5526 5524 5522 5520 5518 5516 5514 5512 5511 5509 5508 5506 5505 5505 5503 5502 5501 5500 5498 5498 5497 5497 5496 5495 5495 5494 5494 5493 5492 5492 5491 5491 5490 5489 5488 5487
5522 5521 5520 5519 5517 5515 5514 5512 5511 5509 5508 5506 5504 5502 5500 5498 5497 5495 5494 5492 5491 5490 5489 5488 5486 5485 5485 5484 5483 5483 5483 5482 5482 5482 5481 5481 5480 5480 5480 5479 5479 5478 5477 5476
5506 5505 5505 5504 5502 5501 5500 5498 5496 5495 5493 5492 5490 5488 5486 5485 5483 5481 5480 5479 5478 5477 5475 5474 5473 5472 5472 5471 5470 5470 5470 5470 5470 5469 5469 5469 5469 5468 5468 5468 5467 5467 5466 5466
5492 5491 5490 5489 5487 5486 5485 5484 5482 5481 5479 5478 5476 5475 5473 5471 5470 5468 5467 5466 5465 5464 5463 5461 5460 5459 5459 5458 5457 5457 5457 5457 5457 5457 5457 5457 5457 5456 5456 5456 5456 5455 5455 5455
5477 5476 5475 5474 5473 5472 5471 5469 5468 5467 5466 5464 5462 5461 5460 5458 5456 5454 5453 5453 5451 5450 5449 5448 5447 5447 5446 5445 5445 5445 5445 5445 5445 5445 5445 5445 5445 5445 5444 5444 5444 5444 5444 5444
5463 5461 5460 5459 5458 5457 5456 5455 5453 5453 5451 5450 5448 5447 5445 5444 5442 5441 5440 5440 5439 5437 5436 5435 5435 5434 5433 5433 5433 5433 5433 5433 5433 5433 5433 5433 5433 5433 5432 5432 5432 5432 5432 5433
5448 5447 5446 5445 5443 5443 5442 5440 5439 5438 5437 5435 5434 5432 5431 5430 5429 5427 5427 5426 5426 5424 5423 5423 5422 5421 5421 5421 5421 5421 5421 5421 5421 5421 5421 5421 5421 5421 5421 5421 5421 5421 5421 5422
5434 5432 5431 5430 5429 5428 5428 5426 5425 5423 5422 5421 5420 5418 5417 5415 5414 5413 5413 5413 5412 5411 5410 5410 5409 5409 5408 5408 5409 5409 5409 5409 5409 5409 5409 5409 5410 5410 5410 5410 5410 5410 5411 5411
5418 5417 5416 5415 5413 5412 5412 5412 5410 5409 5408 5407 5406 5404 5402 5401 5401 5400 5398 5398 5398 5397 5397 5397 5397 5396 5396 5396 5397 5397 5397 5397 5397 5398 5398 5398 5399 5399 5399 5399 5400 5400 5400 5401
5403 5402 5401 5399 5398 5397 5396 5395 5395 5394 5393 5392 5392 5391 5389 5387 5387 5386 5386 5385 5385 5384 5384 5385 5384 5384 5384 5384 5385 5385 5385 5386 5386 5386 5387 5388 5388 5389 5389 5389 5390 5390 5391 5391
5388 5386 5385 5384 5383 5382 5380 5379 5378 5379 5378 5377 5378 5377 5376 5375 5374 5373 5373 5372 5372 5372 5372 5372 5372 5372 5373 5373 5374 5374 5374 5375 5375 5376 5376 5377 5378 5379 5379 5380 5380 5381 5382 5382
5373 5372 5370 5369 5369 5366 5364 5363 5363 5363 5363 5362 5362 5363 5362 5362 5361 5361 5360 5360 5360 5360 5360 5360 5361 5361 5362 5362 5363 5364 5364 5365 5365 5366 5367 5367 5368 5369 5370 5371 5372 5373 5373 5373